Regional Weather Roundup
Issued by NWS Wakefield, VA

Home | Current Version | Previous Version | Graphics & Text | Print | Product List | Glossary On
Versions: 1 2 3 4 5 6 7 8 9 10 11 12 13 14 15 16 17 18 19 20 21 22 23 24 25 26 27 28 29 30 31 32 33 34 35 36 37 38 39 40 41 42 43 44 45 46 47 48 49 50
000
ASUS41 KAKQ 291510
RWRAKQ

REGIONAL WEATHER ROUNDUP
NATIONAL WEATHER SERVICE WAKEFIELD VA
1100 AM EDT FRI AUG 29 2014

Note: "fair" indicates few or no clouds below 12,000 feet with no
significant weather and/or obstructions to visibility. * = Denotes
station may not report precipitation (e.g., rain,snow,etc.),
thunder or fog.

VAZ042-051-052>054-056-291600-
NORTHERN VIRGINIA

CITY           SKY/WX    TMP DP  RH WIND       PRES   REMARKS
WASH NATIONAL  MOSUNNY   76  52  43 NE6       30.22R
DULLES         PTSUNNY   70  52  52 SE6       30.22S
FORT BELVOIR   SUNNY     73  53  49 VRB3      30.22R
QUANTICO       MOSUNNY   73  56  54 NE6       30.22R
FREDERICKSBRG* SUNNY     74  56  52 NE3       30.21R
STAFFORD*      SUNNY     71  57  60 N5        30.25S
WARRENTON      SUNNY     74  61  63 NE5       30.22S
CULPEPER*      SUNNY    N/A N/A N/A CALM      30.23R
MANASSAS*      SUNNY     72  55  56 CALM      30.22R
LEESBURG*      SUNNY     72  55  56 CALM      30.23S
WINCHESTER     SUNNY     68  52  56 SE3       30.23S
$$

VAZ048-049-060>072-079>083-291600-
CENTRAL AND SOUTH CENTRAL VIRGINIA...AND NORTH CENTRAL NORTH CAROLINA

CITY           SKY/WX    TMP DP  RH WIND       PRES   REMARKS
RICHMOND       PTSUNNY   78  59  51 VRB6      30.18S
CHESTERFIELD*  CLOUDY    75  52  43 NE7       30.20S
PETERSBURG*    CLOUDY    76  59  57 NE8       30.18S
HANOVER        MOSUNNY   75  58  55 N6        30.21R
TAPPAHANNOCK*  SUNNY     76  52  43 N3        30.20S
CHARLOTTSVILLE SUNNY     71  53  52 NE6       30.22S
ORANGE*        SUNNY     72  52  49 N3        30.23S
LOUISA*        SUNNY     72  57  60 NE5       30.20S
FARMVILLE*     SUNNY     73  59  60 NE7       30.18S
SOUTH HILL*    MOSUNNY  N/A N/A N/A NE5       30.22S
ROANOKE RAPIDS CLOUDY    77  68  73 NE6       30.15S
RALEIGH        PTSUNNY   78  68  71 NE9       30.14S
$$

VAZ088>098-291600-
SOUTHEAST VIRGINIA

CITY           SKY/WX    TMP DP  RH WIND       PRES   REMARKS
NORFOLK        SUNNY     78  62  57 NE13      30.15S
VIRGINIA BEACH MOSUNNY   79  64  60 NE13      30.15R
NORFOLK NAVAL  MOSUNNY   80  63  55 NE13      30.17S
WEST POINT*    SUNNY     78  61  54 NE6       30.20R
NEWPORT NEWS   SUNNY     81  65  58 E9        30.17R
LANGLEY AFB    SUNNY     78  67  69 NE10      30.16R
FORT EUSTIS    SUNNY     78  60  53 E8        30.15R
WILLIAMSBURG*  SUNNY     82  64  54 CALM      30.18R
FRANKLIN*      MOSUNNY   81  66  61 NE9       30.15R
WAKEFIELD      SUNNY     80  61  52 VRB6      30.16R
$$

VAZ020-022-025-037-045-291600-
WESTERN AND SOUTHWEST VIRGINIA

CITY           SKY/WX    TMP DP  RH WIND       PRES   REMARKS
STAUNTON*      SUNNY     70  55  57 SE3       30.24S
HOT SPRINGS VA SUNNY     62  51  67 SE6       30.31R
LYNCHBURG      CLOUDY    71  56  58 E7        30.22S
DANVILLE       MOSUNNY   76  65  68 NE7       30.18S
MARTINSVILLE   MOSUNNY   75  60  59 N6        30.22S
ROANOKE        CLOUDY    71  53  52 S7        30.23S
BLACKSBURG     CLOUDY    70  57  64 E5        30.27R
DUBLIN*        CLOUDY    71  57  60 SE3       30.26R
MARION*        CLOUDY   N/A N/A N/A NE8       30.27S
HILLSVILLE*    CLOUDY    68  59  71 CALM      30.26R
RICHLANDS*     SUNNY     79  67  67 SE5       30.20S
WISE*          SUNNY     79  64  61 S7        30.21S
ABINGDON*      SUNNY     80  68  67 E8        30.18S
$$

MDZ021>025-VAZ099-100-291600-
SOUTHERN MARYLAND AND THE DELMARVA PENINSULA

CITY           SKY/WX    TMP DP  RH WIND       PRES   REMARKS
PATUXENT RIVER PTSUNNY   73  54  51 NE8       30.20R
BAY BRIDGE APT   N/A     72  50  46 CALM      30.21R
LEONARDTOWN    SUNNY     72  52  49 N5        30.21S
DOVER          SUNNY     72  56  57 NE6       30.19R
GEORGETOWN     SUNNY     73  56  54 NE8       30.20R
EASTON         MOSUNNY   73  54  49 NE6       30.24R
CAMBRIDGE      SUNNY     72  54  53 NE6       30.20R
SALISBURY      SUNNY     75  56  51 NW5       30.19S
OCEAN CITY     SUNNY     75  57  53 NE7       30.18S
WALLOPS ISLAND SUNNY     77  59  53 NE5       30.19R
ACCOMACK*      NOT AVBL
$$

NCZ012>017-030>032-291600-
EASTERN NORTH CAROLINA

CITY           SKY/WX    TMP DP  RH WIND       PRES   REMARKS
ELIZABETH CITY MOSUNNY   80  68  66 E10       30.14R
AHOSKIE*       MOSUNNY   76  70  81 E6        30.15R
EDENTON*       MOSUNNY   76  70  81 E9        30.14R
CURRITUCK*     NOT AVBL
KILL DEVIL HLS SUNNY     80  68  67 E8        30.12S
MANTEO         MOSUNNY   78  69  74 NE15      30.13S
CAPE HATTERAS  PTSUNNY   81  71  71 N3        30.11
GOLDSBORO      PTSUNNY   76  76  98 NE5       30.11S
WASHINGTON     MOSUNNY   78  71  79 E7        30.13R
GREENVILLE     PTSUNNY   81  72  74 E7        30.14R
NEW BERN       CLOUDY    81  69  67 CALM      30.13R
WILMINGTON     MOSUNNY   84  69  60 NW9       30.11S
$$

VAZ048-291600-
ELSEWHERE

CITY           SKY/WX    TMP DP  RH WIND       PRES   REMARKS
HARRISBURG PA  PTSUNNY   71  52  50 CALM      30.22R
BALTIMORE      PTSUNNY   71  50  47 VRB6      30.21S
ANNAPOLIS      SUNNY     72  53  51 N3        30.21S
ANDREWS AFB    SUNNY     71  55  56 VRB1      30.21S
WILMINGTON DE  MOSUNNY   72  51  47 E8        30.21R
PHILADELPHIA   PTSUNNY   74  50  42 VRB6      30.20R
WILDWOOD NJ*   MOSUNNY   72  55  56 NE9       30.20S
ATLANTIC CITY  SUNNY     73  58  59 NE7       30.19R
HENDERSON NC   CLOUDY    75  65  71 NE8       30.17R
GREENSBORO     CLOUDY    73  63  70 NE8       30.17R
ROCKY MOUNT    PTSUNNY   80  70  71 NE7       30.14R
FAYETTEVILLE   SUNNY     84  65  52 E5        30.10S
CHARLOTTE      MOSUNNY   82  69  64 NE8       30.14R
$$

VAZ100-291600-
MARINE

STATION/POSITION TIME  TEMP    WIND        PRES    WAVE   SWELL
                       AIR SEA DIR/SP/G            HT/PER HT/PER
                 (UTC) (F)     (DEG/KT/KT) (MB)    (FT/S) (FT/S)
44066 TX TWR #4  1500   69 72   30/ 12/ 14 1021.4R   5/10   3/10
CAPE MAY NJ      1500   70 78   40/  3/  7 1021.5S
LEWES DE         1500   68 74   30/  8/  9 1021.9R
15NM E FENWICK I 1500   69 74              1021.6R   3/10
OCEAN-CITY-INLET 1500   70 75   20/  6/ 11 1021.5S
WACHAPREAGUE VA  1500   73 78   60/  8/ 11 1021.8R
THOMAS POINT MD  1500   67 77   20/  5/  7 1023.9R
GOOSES REEF MD   1500   69      50/  8/ 10 1023.3S
COVE POINT MD    1500   69      20/  6/  8 1022.7R
SOLOMONS ISLAND  1500      80                N/A
BISHOPS HEAD MD  1500   71 75   30/  6/  8 1022.0S
PINEY POINT MD   1500          120/  5/  6   N/A
POTOMAC MD       1500   70      60/  8/ 10 1021.9S
CAMBRIDGE MD     1500   69 78   10/  3/  4 1022.5R
LEWISETTA VA     1500   71 78   70/  6/  7 1022.1S
RAPPAHANNOCK LGT 1500           20/  8/ 10 1022.3S
STINGRAY PT      1500   71      40/ 12/ 14   N/A
YORK RVR RNG VA  1500   73      60/ 11/ 13 1021.1S
YORKTOWN VA      1500   74 80   80/ 10/ 11 1021.4R
JAMESTOWN VA     1500   74     110/  6/ 12   N/A
DOMINION TERM VA 1500   77     110/  3/ 10 1021.3S
KIPTOPEKE VA     1500      81   70/ 11/ 13   N/A
CHES BAY BRIDGE  1500   74 78   50/ 13/ 15 1020.7R
CAPE HENRY VA    1500   75      60/ 12/ 13 1020.0R
CHESAPEAKE LGHT  1400   73      60/ 14/ 15 1021.5R
WILLOUBY STN VA  1500   75      70/ 11/ 12 1020.0S
S CRANEY ISL VA  1500           30/ 11/ 13 1020.9R
CAPE HENRY BUOY  1500      77                N/A     3/11
1ST LANDING BUOY 1500   75      60/ 12/ 16 1020.8S
CAPE CHARLES BUO 1500      76                N/A     3/ 9   2/ 9
OFFSHORE WE BUOY 1500      75                N/A     3/ 9   3/ 9
64NM E OF VA BCH 1500   76 77   30/  8/ 10 1020.3R   4/ 8   3/ 8
DUCK PIER NC     1500   76 78   60/ 16/ 17 1019.8R
44056 DUCK FRF   1500                        N/A     3/ 7
OREGON INLET NC  1500   74 79   30/ 15/ 18 1020.0R
HATTERAS NC      1500   80 80  340/  4/  5 1020.2R
DIAMOND SHLS NC  1500   79     270/  8/ 10 1019.5R   3/ 8   3/ 8
CAPE LOOKOUT NC  1500   83     270/  6/  8 1019.7R
$$



USA.gov is the U.S. government's official web portal to all federal, state and local government web resources and services.